| time (UTC) | temp C | wind direction | speed KPH | gust KPH | rain 1hr cm | rain 24hr cm | rain mn cm | humidity % | barometer mb |
| 20260503211518 | 32 | 360 | 0.0 | 17.7 | 0.00 | 0.00 | 0.00 | 16 | 1008.3 |
| 20260503210019 | 33 | 360 | 8.0 | 25.7 | 0.00 | 0.00 | 0.00 | 16 | 1008.5 |
| 20260503204515 | 32 | 360 | 1.6 | 27.4 | 0.00 | 0.00 | 0.00 | 17 | 1008.2 |
| 20260503203018 | 33 | 170 | 14.5 | 24.1 | 0.00 | 0.00 | 0.00 | 16 | 1008.0 |
| 20260503201515 | 32 | 360 | 0.0 | 9.7 | 0.00 | 0.00 | 0.00 | 18 | 1008.2 |
| 20260503200014 | 32 | 360 | 9.7 | 24.1 | 0.00 | 0.00 | 0.00 | 18 | 1008.5 |
| 20260503194515 | 32 | 236 | 9.7 | 24.1 | 0.00 | 0.00 | 0.00 | 18 | 1008.5 |
| 20260503193011 | 32 | 169 | 3.2 | 24.1 | 0.00 | 0.00 | 0.00 | 19 | 1008.5 |
| 20260503191510 | 32 | 360 | 1.6 | 24.1 | 0.00 | 0.00 | 0.00 | 19 | 1008.9 |
| 20260503190010 | 32 | 360 | 0.0 | 6.4 | 0.00 | 0.00 | 0.00 | 19 | 1009.1 |
| 20260503184511 | 31 | 360 | 0.0 | 8.0 | 0.00 | 0.00 | 0.00 | 18 | 1009.4 |
| 20260503183001 | 31 | 228 | 0.0 | 0.0 | 0.00 | 0.00 | 0.00 | 19 | 1009.8 |
| 20260503181501 | 31 | 360 | 0.0 | 6.4 | 0.00 | 0.00 | 0.00 | 20 | 1009.9 |
| 20260503180001 | 30 | 189 | 3.2 | 12.9 | 0.00 | 0.00 | 0.00 | 20 | 1010.3 |
| 20260503174601 | 31 | 125 | 1.6 | 8.0 | 0.00 | 0.00 | 0.00 | 19 | 1010.1 |
| 20260503173058 | 30 | 360 | 0.0 | 12.9 | 0.00 | 0.00 | 0.00 | 21 | 1010.1 |
| 20260503171610 | 29 | 360 | 0.0 | 8.0 | 0.00 | 0.00 | 0.00 | 23 | 1010.2 |
| 20260503081537 | 22 | 360 | 0.0 | 0.0 | 0.00 | 0.00 | 0.00 | 32 | 1009.0 |
| 20260503071540 | 23 | 360 | 0.0 | 0.0 | 0.00 | 0.00 | 0.00 | 34 | 1009.1 |
| 20260503054526 | 26 | 360 | 0.0 | 0.0 | 0.00 | 0.00 | 0.00 | 29 | 1008.3 |
| 20260503053023 | 26 | 360 | 0.0 | 0.0 | 0.00 | 0.00 | 0.00 | 28 | 1008.1 |
| 20260503051523 | 27 | 360 | 0.0 | 0.0 | 0.00 | 0.00 | 0.00 | 28 | 1008.0 |
| 20260503050022 | 27 | 360 | 0.0 | 0.0 | 0.00 | 0.00 | 0.00 | 27 | 1007.7 |
| 20260503044540 | 27 | 360 | 0.0 | 4.8 | 0.00 | 0.00 | 0.00 | 26 | 1007.7 |
| 20260503043036 | 27 | 360 | 0.0 | 16.1 | 0.00 | 0.00 | 0.00 | 26 | 1007.6 |
| 20260503041519 | 28 | 360 | 0.0 | 19.3 | 0.00 | 0.00 | 0.00 | 26 | 1007.2 |
| 20260503040019 | 28 | 360 | 1.6 | 19.3 | 0.00 | 0.00 | 0.00 | 26 | 1007.0 |
| 20260503034518 | 28 | 360 | 4.8 | 17.7 | 0.00 | 0.00 | 0.00 | 26 | 1006.9 |
| 20260503033018 | 28 | 360 | 1.6 | 22.5 | 0.00 | 0.00 | 0.00 | 26 | 1006.8 |
| 20260503031525 | 28 | 360 | 4.8 | 20.9 | 0.00 | 0.00 | 0.00 | 26 | 1006.6 |
| 20260503030016 | 28 | 360 | 8.0 | 24.1 | 0.00 | 0.00 | 0.00 | 26 | 1006.3 |
| 20260503024516 | 29 | 360 | 4.8 | 22.5 | 0.00 | 0.00 | 0.00 | 26 | 1006.5 |
| 20260503023015 | 30 | 360 | 8.0 | 27.4 | 0.00 | 0.00 | 0.00 | 25 | 1006.3 |
| 20260503021516 | 30 | 360 | 1.6 | 24.1 | 0.00 | 0.00 | 0.00 | 25 | 1006.1 |
| 20260503020015 | 30 | 360 | 9.7 | 20.9 | 0.00 | 0.00 | 0.00 | 24 | 1005.8 |
| 20260503014514 | 31 | 360 | 9.7 | 20.9 | 0.00 | 0.00 | 0.00 | 24 | 1005.5 |
| 20260503013014 | 31 | 360 | 4.8 | 22.5 | 0.00 | 0.00 | 0.00 | 24 | 1005.5 |
| 20260503011514 | 32 | 228 | 12.9 | 22.5 | 0.00 | 0.00 | 0.00 | 23 | 1005.4 |
| 20260503010013 | 32 | 258 | 14.5 | 27.4 | 0.00 | 0.00 | 0.00 | 23 | 1005.3 |
| 20260503004514 | 33 | 360 | 12.9 | 27.4 | 0.00 | 0.00 | 0.00 | 23 | 1005.2 |
| 20260503003011 | 33 | 360 | 12.9 | 27.4 | 0.00 | 0.00 | 0.00 | 22 | 1005.1 |
| 20260503001511 | 34 | 360 | 4.8 | 16.1 | 0.00 | 0.00 | 0.00 | 22 | 1005.0 |
| 20260503000016 | 35 | 360 | 0.0 | 3.2 | 0.00 | 0.00 | 0.00 | 19 | 1005.1 |
| 20260502234512 | 35 | 360 | 0.0 | 9.7 | 0.00 | 0.00 | 0.00 | 19 | 1004.9 |
| 20260502233010 | 35 | 360 | 1.6 | 14.5 | 0.00 | 0.00 | 0.00 | 19 | 1004.9 |
| 20260502231509 | 35 | 360 | 6.4 | 17.7 | 0.00 | 0.00 | 0.00 | 19 | 1004.9 |
| 20260502230010 | 35 | 261 | 6.4 | 22.5 | 0.00 | 0.00 | 0.00 | 19 | 1004.9 |
| 20260502224507 | 35 | 290 | 8.0 | 17.7 | 0.00 | 0.00 | 0.00 | 18 | 1004.9 |
| 20260502223015 | 35 | 360 | 1.6 | 22.5 | 0.00 | 0.00 | 0.00 | 19 | 1005.3 |
| 20260502221504 | 36 | 360 | 0.0 | 12.9 | 0.00 | 0.00 | 0.00 | 18 | 1005.2 |
| 20260502220004 | 36 | 170 | 3.2 | 17.7 | 0.00 | 0.00 | 0.00 | 17 | 1005.1 |
| 20260502214504 | 36 | 360 | 0.0 | 9.7 | 0.00 | 0.00 | 0.00 | 17 | 1005.3 |
| 20260502213059 | 36 | 250 | 0.0 | 12.9 | 0.00 | 0.00 | 0.00 | 18 | 1005.6 |